Location: Staunton
(38.1490°N, 79.0720°W)
Time: 06:13:55
(UTC-04:00)

ISS - Pass Details

Date: 22 May 2018
Orbit: 402 x 407 km, 51.6° (Epoch: 26 May)

Event Time Altitude Azimuth Distance (km) Brightness Sun altitude
Rises 04:53:24 0° 304° (NW) 2,315 -0.2 -11.9°
Reaches altitude 10° 04:55:31 10° 298° (WNW) 1,453 -1.3 -11.6°
Maximum altitude 04:58:40 46° 224° (SW) 546 -3.6 -11.1°
Drops below altitude 10° 05:01:47 10° 149° (SSE) 1,445 -1.1 -10.6°
Sets 05:03:54 0° 143° (SE) 2,301 0.0 -10.3°
